[Date Prev][Date Next][Thread Prev][Thread Next] - [Date Index][Thread Index][Author Index]

2 Line ISS Keps 9-16



ISS 
1 25544U 98067A   04260.44618056  .00024450  00000-0  20543-3 0  7008
2 25544  51.6348 219.9332 0005374 153.9800 345.1706 15.69736751332658
----
Via the sarex mailing list at AMSAT.ORG courtesy of AMSAT-NA.
To unsubscribe, send "unsubscribe sarex" to Majordomo@amsat.org



AMSAT Top AMSAT Home